Flag for Germany Weather past 2 weeks in Gross-Gerau, Hesse, Germany

Now
81 °F

Passing clouds.


Feels Like: 79 °F
Forecast: 59 / 84 °F
Wind: 10 mph from South

Location: Frankfurt-M-Flughafen Airport

Current Time: Aug 1, 2015 at 7:14:55 PM

Latest Report: Aug 1, 2015 at 6:20 PM


Visibility: N/A

Pressure: 29.92 "Hg

Humidity: 26%

Dew point: 43 °F

Location of Gross-GerauLocation

Historic Weather in Gross-Gerau — Graph

°F

Gross-Gerau temperature yesterday

Maximum temperature yesterday: 73 °F (at 5:50 PM)
Minimum temperature yesterday: 46 °F (at 6:20 AM)
Average temperature yesterday: 62 °F

Past Weeks' High & Low Weather Summary

 TemperatureHumidityPressure
High95 °F (Jul 17, 5:20 PM)94% (Jul 18, 12:50 AM)30.12 "Hg (Jul 18, 12:50 AM)
Low45 °F (Jul 30, 4:50 AM)23% (Jul 17, 5:20 PM)29.62 "Hg (Jul 24, 11:20 PM)
Average69 °F59%29.90 "Hg
* Reported Jul 17 5:20 PM — Aug 1 5:50 PM, Gross-Gerau, Weather by CustomWeather, © 2015

Note: Actual official high and low records may vary slightly from our data, if they occured in-between our weather recording intervals... More about our weather records

Advertising

Gross-Gerau weather history for previous 24 hours

 ConditionsComfort  
Time TempWeatherWind HumidityBarometerVisibility
5:50 PM
Sat, Aug 1
81 °FPassing clouds.9 mph26%29.92 "HgN/A
5:20 PM82 °FPassing clouds.8 mph25%29.92 "HgN/A
4:50 PM81 °FSunny.6 mph26%29.92 "Hg10 mi
4:20 PM81 °FPassing clouds.7 mph24%29.92 "HgN/A
3:50 PM81 °FSunny.5 mph26%29.92 "Hg10 mi
3:20 PM82 °FPassing clouds.6 mph26%29.92 "HgN/A
2:50 PM81 °FPassing clouds.7 mph26%29.92 "HgN/A
2:20 PM77 °FPassing clouds.7 mph30%29.95 "HgN/A
1:50 PM77 °FSunny.6 mph32%29.95 "Hg10 mi
1:20 PM75 °FSunny.5 mph31%29.95 "Hg10 mi
12:50 PM75 °FSunny.5 mph31%29.95 "Hg10 mi
12:20 PM72 °FSunny.6 mph36%29.95 "Hg10 mi
11:50 AM70 °FPassing clouds.8 mph40%29.98 "HgN/A
11:20 AM68 °FPassing clouds.7 mph43%29.98 "HgN/A
10:50 AM66 °FPassing clouds.8 mph43%29.98 "HgN/A
10:20 AM64 °FSunny.9 mph49%29.98 "Hg10 mi
9:50 AM64 °FPassing clouds.8 mph46%29.98 "HgN/A
9:20 AM63 °FSunny.10 mph49%29.98 "Hg10 mi
8:50 AM63 °FSunny.9 mph49%29.98 "Hg10 mi
8:20 AM61 °FPassing clouds.9 mph52%29.95 "HgN/A
7:50 AM61 °FSunny.10 mph52%29.95 "Hg10 mi
7:20 AM61 °FSunny.14 mph52%29.92 "Hg10 mi
6:50 AM59 °FClear.12 mph51%29.95 "Hg10 mi
6:20 AM59 °FClear.12 mph51%29.95 "Hg10 mi
5:50 AM59 °FClear.13 mph51%29.95 "Hg10 mi
5:20 AM59 °FClear.13 mph51%29.95 "Hg10 mi
4:50 AM61 °FClear.10 mph48%29.95 "Hg10 mi
4:20 AM61 °FClear.12 mph48%29.95 "Hg10 mi
3:50 AM61 °FClear.12 mph48%29.95 "Hg10 mi
3:20 AM61 °FClear.12 mph48%29.95 "Hg10 mi
2:50 AM61 °FClear.13 mph48%29.95 "Hg10 mi
2:20 AM61 °FClear.13 mph48%29.98 "Hg10 mi
1:50 AM63 °FClear.13 mph45%29.98 "Hg10 mi
1:20 AM63 °FClear.13 mph45%29.98 "Hg10 mi
12:50 AM63 °FClear.14 mph45%29.98 "Hg10 mi
12:20 AM63 °FClear.13 mph45%29.98 "Hg10 mi
11:50 PM
Fri, Jul 31
63 °FClear.14 mph45%29.98 "Hg10 mi
11:20 PM64 °FClear.13 mph43%29.98 "Hg10 mi
10:50 PM64 °FClear.15 mph43%29.98 "Hg10 mi
10:20 PM66 °FClear.15 mph40%29.98 "Hg10 mi
9:50 PM68 °FSunny.14 mph38%29.98 "Hg10 mi
9:20 PM68 °FSunny.14 mph38%29.98 "Hg10 mi
8:50 PM70 °FSunny.14 mph33%29.98 "Hg10 mi
8:20 PM72 °FSunny.13 mph31%29.98 "Hg10 mi
7:50 PM72 °FSunny.10 mph31%29.98 "Hg10 mi
7:20 PM72 °FPassing clouds.10 mph29%29.98 "HgN/A
Weather by CustomWeather, © 2015

See weather overviewHow to use our weather pages